Lid_Strength_Index
8 10 11 13 15 14 17 18 17 16 12 9 11 9 8 8 7 7 6 5 5 4 3 3 3 2 2 2 2 2 1 1
9 10 11 12 12 16 17 19 22 16 16 14 13 12 10 10 9 7 5 5 4 4 3 3 2 2 2 2 2 2 2 2
11 13 14 13 13 15 16 18 20 19 17 10 11 11 11 10 9 9 7 6 5 4 3 3 2 3 2 2 2 2 1 1
14 11 10 12 14 15 16 17 19 18 17 10 9 9 9 9 9 8 6 5 5 5 5 4 3 2 3 2 2 2 1 1
14 12 10 11 11 15 16 17 18 19 17 10 10 9 9 9 9 8 6 5 5 5 5 4 3 3 3 2 2 2 1 2
16 14 12 12 11 12 14 16 17 17 13 12 10 10 10 9 8 7 5 5 6 6 6 5 4 3 3 3 3 2 2 2
13 11 11 11 11 11 14 14 15 13 13 12 10 10 9 7 7 7 8 7 7 7 7 6 5 4 3 3 2 2 2 3
13 10 10 12 11 11 12 12 12 11 12 10 9 9 9 8 7 8 7 6 6 6 5 5 5 5 4 3 2 1 2 2
16 12 12 14 12 11 11 10 10 13 11 9 9 8 8 8 7 8 7 6 6 5 5 5 4 3 3 3 3 2 2 2
15 14 18 13 8 8 10 9 9 9 9 8 8 8 7 7 8 7 7 7 7 6 6 5 4 3 3 3 3 3 3 3
16 17 15 11 9 10 11 12 8 9 8 7 7 7 7 7 7 8 8 8 8 7 7 6 5 4 4 5 5 5 5 4
16 17 18 12 8 7 8 14 8 8 8 8 8 12 10 7 7 7 7 7 7 6 5 6 5 4 5 5 6 6 5 5
15 16 14 9 7 7 14 12 7 7 7 8 9 8 7 7 7 7 7 6 6 6 6 6 5 5 6 6 6 5 5 5
16 16 16 7 8 11 9 8 7 7 6 7 7 8 8 8 8 7 7 7 6 7 7 6 6 6 6 6 5 4 5 4
13 13 9 8 8 7 6 7 7 7 7 7 8 9 8 8 8 7 7 7 6 7 6 6 6 6 7 6 5 5 5 5
11 10 9 8 7 6 6 6 6 6 7 8 9 8 8 8 8 8 7 6 6 7 6 7 6 6 6 6 5 5 5 5
11 9 8 7 6 6 6 6 6 7 8 8 8 8 8 8 7 7 7 6 7 7 6 6 6 6 6 5 5 5 5 5
11 9 8 8 6 5 6 6 7 7 7 7 7 8 7 8 7 7 8 7 7 6 5 5 5 5 5 5 5 5 4 4
9 8 7 6 5 4 6 6 7 7 7 7 6 7 8 7 7 6 6 5 6 5 4 5 5 5 5 4 4 5 5 4